• MPC Preparation (Info)

  • MPEC 2014-J98 : 2014 JG55

    The following Minor Planet Electronic Circular may be linked-to from your own Web pages, but must not otherwise be redistributed electronically.

    A form allowing access to any MPEC is at the bottom of this page.


    Read MPEC 2014-J97 Read MPEC 2014-J99


    M.P.E.C. 2014-J98                                Issued 2014 May 10, 21:01 UT
    
         The Minor Planet Electronic Circulars contain information on unusual
             minor planets and routine data on comets.  They are published
       on behalf of Commission 20 of the International Astronomical Union by the
              Minor Planet Center, Smithsonian Astrophysical Observatory,
                              Cambridge, MA 02138, U.S.A.
    
                 Prepared using the Tamkin Foundation Computer Network
    
                                  MPC@CFA.HARVARD.EDU
                URL https://www.minorplanetcenter.net/    ISSN 1523-6714
    
                                       2014 JG55
    
    Observations:
         K14J55G* C2014 05 10.36291 14 47 17.09 +15 43 02.3          18.1 rNEJ098I41
         K14J55G  C2014 05 10.36404 14 47 22.84 +15 42 14.8          17.9 rNEJ098I41
         K14J55G  C2014 05 10.44584 14 56 01.86 +14 30 37.0          17.2 rNEJ098I41
         K14J55G  C2014 05 10.45327 14 57 00.42 +14 22 31.8          17.1 rNEJ098I41
         K14J55G  C2014 05 10.60298 15 35 06.79 +10 13 53.1          16.3 VqEJ098900
         K14J55G  C2014 05 10.60393 15 35 25.21 +10 11 22.4          16.1 VqEJ098900
         K14J55G  C2014 05 10.60488 15 35 43.71 +10 08 50.3          16.3 VqEJ098900
         K14J55G  C2014 05 10.60679 15 36 21.15 +10 03 43.3          16.1 VqEJ098900
         K14J55G  C2014 05 10.60775 15 36 40.07 +10 01 08.3          16.2 VqEJ098900
         K14J55G  C2014 05 10.60859 15 36 56.88 +09 58 50.1          16.3 VqEJ098900
         K14J55G  C2014 05 10.61352 15 38 36.94 +09 45 04.2          16.1 VqEJ098900
         K14J55G  C2014 05 10.61446 15 38 56.45 +09 42 23.0          15.9 VqEJ098900
         K14J55G  C2014 05 10.61542 15 39 16.56 +09 39 36.3          16.1 VqEJ098900
         K14J55G  C2014 05 10.61638 15 39 36.62 +09 36 50.1          16.1 VqEJ098900
         K14J55G  C2014 05 10.61732 15 39 56.59 +09 34 03.9          16.2 VqEJ098900
         K14J55G  C2014 05 10.63190 15 45 21.48 +08 48 46.8          16.2 VqEJ098900
         K14J55G  C2014 05 10.63289 15 45 44.80 +08 45 30.0          16.1 VqEJ098900
         K14J55G  C2014 05 10.63381 15 46 06.50 +08 42 27.0          16.0 VqEJ098900
         K14J55G  C2014 05 10.63460 15 46 25.31 +08 39 48.3          16.2 VqEJ098900
         K14J55G  C2014 05 10.63935 15 48 20.79 +08 23 30.5          15.9 VqEJ098900
         K14J55G  C2014 05 10.64028 15 48 43.97 +08 20 14.0          16.0 VqEJ098900
         K14J55G  C2014 05 10.64100 15 49 01.85 +08 17 41.8          16.0 VqEJ098900
         K14J55G  C2014 05 10.64567 15 51 00.86 +08 00 48.4          16.3 VqEJ098900
         K14J55G  C2014 05 10.64629 15 51 16.95 +07 58 31.0          16.0 VqEJ098900
         K14J55G  C2014 05 10.64694 15 51 33.98 +07 56 06.0          16.0 VqEJ098900
         K14J55G  C2014 05 10.64763 15 51 51.98 +07 53 32.1          16.1 VqEJ098900
         K14J55G  C2014 05 10.66857 16 01 48.78 +06 27 41.1          15.7 VqEJ098900
         K14J55G  C2014 05 10.66909 16 02 04.89 +06 25 21.3          15.7 VqEJ098900
         K14J55G  C2014 05 10.66962 16 02 21.21 +06 22 59.2          15.7 VqEJ098900
         K14J55G  C2014 05 10.69716 16 18 21.92 +04 02 04.8          15.8 VqEJ098900
         K14J55G  C2014 05 10.69769 16 18 42.24 +03 59 04.9          15.6 VqEJ098900
         K14J55G  C2014 05 10.69813 16 18 59.67 +03 56 30.4          15.6 VqEJ098900
         K14J55G  C2014 05 10.72452 16 38 25.90 +01 02 53.9          15.6 VqEJ098900
         K14J55G  C2014 05 10.72507 16 38 53.19 +00 58 50.1          15.6 VqEJ098900
         K14J55G  C2014 05 10.75927 17 12 29.79 -03 56 52.8          14.9 RoEJ098300
         K14J55G  C2014 05 10.75964 17 12 54.94 -04 00 34.8          14.9 RoEJ098300
         K14J55G  C2014 05 10.76021 17 13 33.88 -04 06 17.9          14.8 RoEJ098300
         K14J55G  C2014 05 10.76202 17 15 38.90 -04 24 39.0          14.9 RoEJ098300
         K14J55G  C2014 05 10.76742 17 22 03.84 -05 20 52.5          14.8 RoEJ098300
         K14J55G  C2014 05 10.76763 17 22 19.22 -05 23 07.0          14.7 RoEJ098300
         K14J55G  C2014 05 10.76848 17 23 21.81 -05 32 12.8          14.8 RoEJ098300
         K14J55G  C2014 05 10.78599 17 46 38.02 -08 51 23.6          15.0 RoEJ098300
         K14J55G  C2014 05 10.78634 17 47 08.17 -08 55 35.7          15.0 RoEJ098300
         K14J55G  C2014 05 10.78688 17 47 54.73 -09 02 05.3          15.0 RoEJ098300
    
    Observer details:
    300 Bisei Spaceguard Center--BATTeRS.  Observers S. Okumura, N. Hashimoto.
        1.0-m f/3.0 reflector + CCD.
    900 Moriyama.  Observer Y. Ikari.  0.26-m f/7.0 reflector + CCD.
    I41 Palomar Mountain--PTF.  Observer P. Transient Factory.  Measurer
        A. Waszczak.  1.2-m f/2.44 Schmidt + CCD.
    
    Orbital elements:
    2014 JG55                                                Earth MOID = 0.0002 AU
    Epoch 2014 May 23.0 TT = JDT 2456800.5                  MPC
    M 348.77840              (2000.0)            P               Q
    n   0.49394282     Peri.  223.02395     +0.04556964     +0.99216892
    a   1.5849598      Node    49.93575     -0.87033830     +0.09657461
    e   0.4128117      Incl.    8.74017     -0.49034136     -0.07920972
    P   2.00           H   29.2           G   0.15           U   5
    Residuals in seconds of arc
    140510 I41  1.2+  1.0-    140510 900  0.4+  0.0     140510 900  0.0   0.3+
    140510 I41  0.9-  0.2-    140510 900  0.8+  0.5-    140510 900  2.4+  0.8-
    140510 I41 (4.7-  2.6+)   140510 900  0.5-  0.3+    140510 900 (5.0+  3.6-)
    140510 I41  1.7-  1.7+    140510 900  0.8-  0.6+    140510 900 (4.8+  2.7-)
    140510 900  1.2-  0.9+    140510 900  0.9-  0.4+    140510 300  1.5-  0.9+
    140510 900  0.2-  0.4+    140510 900  0.6+  0.2-    140510 300  1.7-  1.0+
    140510 900  0.3+  0.5-    140510 900  0.8-  0.3+    140510 300  1.6-  1.2+
    140510 900  0.2-  0.0     140510 900  0.4+  0.3-    140510 300  0.8-  0.5+
    140510 900  1.6-  1.2+    140510 900  0.3+  0.3-    140510 300 (4.0-  2.6+)
    140510 900  0.5-  0.6+    140510 900  1.4+  0.5-    140510 300 (3.7-  2.2+)
    140510 900  1.5-  0.7+    140510 900  0.0   0.2+    140510 300  1.7-  1.1+
    140510 900  0.9-  0.6+    140510 900  2.7+  2.2-    140510 300  0.8+  1.0-
    140510 900  0.6+  0.3-    140510 900 (3.1+  2.0-)   140510 300  1.5+  1.0-
    140510 900  0.7-  0.5+    140510 900  1.0+  0.8-    140510 300  0.7+  0.6-
    140510 900  1.1+  1.0-    140510 900 (6.0+  3.7-)
    
    Ephemeris:
    2014 JG55                a,e,i = 1.58, 0.41, 9                   q = 0.9307
    Date    TT    R. A. (2000) Decl.     Delta      r     Elong.  Phase     V
    2014 04 10    13 56 24.1 +17 48 45   0.1883  1.1717   152.3    23.4    27.0
    ...
    2014 04 25    13 57 03.1 +19 54 50   0.09332 1.0853   146.9    30.4    25.5
    ...
    2014 05 03    13 57 54.6 +20 27 47   0.04585 1.0448   142.6    35.9    24.1
    ...
    2014 05 09    14 08 46.5 +19 43 25   0.01083 1.0178   140.8    38.9    21.0
    2014 05 10    14 25 46.6 +18 11 47   0.0050161.0136   142.9    36.9    19.2
    2014 05 11    23 30 02.4 -27 43 46   0.0011351.0095    70.1   109.9    18.7
    ...
    2014 05 17    02 06 56.3 -19 45 32   0.03597 0.9858    44.4   134.1    28.1
    ...
    2014 05 25    02 11 10.2 -18 55 33   0.08294 0.9601    48.7   127.6    29.2
    ...
    2014 06 09    02 19 22.3 -16 42 03   0.1714  0.9330    57.1   114.1    29.6
    
    A. U. Tomatic                (C) Copyright 2014 MPC           M.P.E.C. 2014-J98
    

    Read MPEC 2014-J97 Read MPEC 2014-J99


    MPEC number:

    Enter an MPEC number in one of the following forms:

    • 1997-B01 (the full form)
    • J97B01 (the packed version of the full form)
    • B01 (the abbreviated form)